Time,TemperatureF,DewpointF,PressureIn,WindDirection,WindDirectionDegrees,WindSpeedMPH,WindSpeedGustMPH,Humidity,HourlyPrecipIn,Conditions,Clouds,dailyrainin,SoftwareType,DateUTC
2013-03-02 00:02:00,24.7,21.1,30.27,ENE,72,6.0,6.0,86,0.00,,,0.11,Wunderground v.1.15,2013-03-02 06:02:00,
2013-03-02 00:07:00,24.7,21.1,30.27,ENE,63,5.0,6.0,86,0.00,,,0.00,Wunderground v.1.15,2013-03-02 06:07:00,
2013-03-02 00:13:00,24.8,21.2,30.27,ENE,67,5.0,6.0,86,0.00,,,0.00,Wunderground v.1.15,2013-03-02 06:13:00,
2013-03-02 00:18:00,24.8,21.2,30.27,NE,53,6.0,6.0,86,0.00,,,0.00,Wunderground v.1.15,2013-03-02 06:18:00,
2013-03-02 00:24:00,24.9,21.3,30.27,NE,56,6.0,7.0,86,0.00,,,0.00,Wunderground v.1.15,2013-03-02 06:24:00,
2013-03-02 00:29:00,24.8,21.2,30.27,NE,49,6.0,7.0,86,0.00,,,0.00,Wunderground v.1.15,2013-03-02 06:29:00,
2013-03-02 00:35:00,24.8,21.2,30.27,ENE,57,6.0,9.0,86,0.00,,,0.00,Wunderground v.1.15,2013-03-02 06:35:00,
2013-03-02 00:40:00,24.8,21.2,30.27,ENE,67,5.0,9.0,86,0.00,,,0.00,Wunderground v.1.15,2013-03-02 06:40:00,
2013-03-02 00:46:00,24.8,21.2,30.28,NE,43,5.0,9.0,86,0.00,,,0.00,Wunderground v.1.15,2013-03-02 06:46:00,
2013-03-02 00:51:00,24.8,21.2,30.28,ENE,76,6.0,9.0,86,0.00,,,0.00,Wunderground v.1.15,2013-03-02 06:51:00,
2013-03-02 00:57:00,24.8,21.5,30.28,ENE,61,6.0,9.0,87,0.00,,,0.00,Wunderground v.1.15,2013-03-02 06:57:00,
2013-03-02 01:02:00,24.8,21.5,30.28,ENE,57,6.0,9.0,87,0.00,,,0.00,Wunderground v.1.15,2013-03-02 07:02:00,
2013-03-02 01:08:00,24.8,21.5,30.28,NE,53,6.0,9.0,87,0.00,,,0.00,Wunderground v.1.15,2013-03-02 07:08:00,
2013-03-02 01:14:00,24.8,21.5,30.28,NE,55,6.0,9.0,87,0.00,,,0.00,Wunderground v.1.15,2013-03-02 07:14:00,
2013-03-02 01:19:00,24.8,21.5,30.28,East,81,7.0,9.0,87,0.00,,,0.00,Wunderground v.1.15,2013-03-02 07:19:00,
2013-03-02 01:25:00,24.8,21.5,30.28,NE,47,6.0,9.0,87,0.00,,,0.00,Wunderground v.1.15,2013-03-02 07:25:00,
2013-03-02 01:31:00,24.8,21.5,30.28,NE,49,7.0,9.0,87,0.00,,,0.00,Wunderground v.1.15,2013-03-02 07:31:00,
2013-03-02 01:37:00,24.7,21.4,30.28,ENE,60,7.0,9.0,87,0.00,,,0.00,Wunderground v.1.15,2013-03-02 07:37:00,
2013-03-02 01:43:00,24.7,21.4,30.28,ENE,63,7.0,9.0,87,0.00,,,0.00,Wunderground v.1.15,2013-03-02 07:43:00,
2013-03-02 01:48:00,24.6,21.3,30.28,ENE,59,6.0,9.0,87,0.00,,,0.00,Wunderground v.1.15,2013-03-02 07:48:00,
2013-03-02 01:54:00,24.6,21.3,30.28,ENE,59,6.0,9.0,87,0.00,,,0.00,Wunderground v.1.15,2013-03-02 07:54:00,
2013-03-02 01:59:00,24.5,21.5,30.28,ENE,58,7.0,9.0,88,0.00,,,0.00,Wunderground v.1.15,2013-03-02 07:59:00,
2013-03-02 02:05:00,24.4,21.4,30.28,ENE,75,6.0,9.0,88,0.00,,,0.00,Wunderground v.1.15,2013-03-02 08:05:00,
2013-03-02 02:10:00,24.3,21.5,30.28,NE,52,6.0,9.0,89,0.00,,,0.00,Wunderground v.1.15,2013-03-02 08:10:00,
2013-03-02 02:15:00,24.2,21.4,30.28,NE,48,7.0,9.0,89,0.00,,,0.00,Wunderground v.1.15,2013-03-02 08:15:00,
2013-03-02 02:21:00,24.2,21.4,30.27,ENE,63,7.0,9.0,89,0.00,,,0.00,Wunderground v.1.15,2013-03-02 08:21:00,
2013-03-02 02:27:00,24.1,21.3,30.27,ENE,74,6.0,9.0,89,0.00,,,0.00,Wunderground v.1.15,2013-03-02 08:27:00,
2013-03-02 02:32:00,24.0,21.2,30.27,East,97,6.0,9.0,89,0.00,,,0.00,Wunderground v.1.15,2013-03-02 08:32:00,
2013-03-02 02:38:00,24.0,21.5,30.27,ENE,64,5.0,9.0,90,0.00,,,0.00,Wunderground v.1.15,2013-03-02 08:38:00,
2013-03-02 02:46:00,23.9,21.4,30.27,NE,49,5.0,9.0,90,0.00,,,0.00,Wunderground v.1.15,2013-03-02 08:46:00,
2013-03-02 02:51:00,23.8,21.3,30.27,East,84,5.0,9.0,90,0.00,,,0.00,Wunderground v.1.15,2013-03-02 08:51:00,
2013-03-02 02:56:00,23.8,21.0,30.27,ENE,62,5.0,9.0,89,0.00,,,0.00,Wunderground v.1.15,2013-03-02 08:56:00,
2013-03-02 03:02:00,23.8,20.8,30.27,NE,55,5.0,9.0,88,0.00,,,0.00,Wunderground v.1.15,2013-03-02 09:02:00,
2013-03-02 03:07:00,23.7,20.7,30.26,NE,54,6.0,9.0,88,0.00,,,0.00,Wunderground v.1.15,2013-03-02 09:07:00,
2013-03-02 03:13:00,23.6,20.6,30.27,ENE,61,5.0,9.0,88,0.00,,,0.00,Wunderground v.1.15,2013-03-02 09:13:00,
2013-03-02 03:19:00,23.4,20.4,30.26,ENE,71,5.0,9.0,88,0.00,,,0.00,Wunderground v.1.15,2013-03-02 09:19:00,
2013-03-02 03:28:00,23.2,20.2,30.26,ENE,69,5.0,9.0,88,0.00,,,0.00,Wunderground v.1.15,2013-03-02 09:28:00,
2013-03-02 03:34:00,23.1,20.1,30.26,NE,53,6.0,9.0,88,0.00,,,0.00,Wunderground v.1.15,2013-03-02 09:34:00,
2013-03-02 03:39:00,23.0,20.0,30.26,NNE,32,6.0,9.0,88,0.00,,,0.00,Wunderground v.1.15,2013-03-02 09:39:00,
2013-03-02 03:45:00,23.1,20.1,30.26,ENE,62,6.0,9.0,88,0.00,,,0.00,Wunderground v.1.15,2013-03-02 09:45:00,
2013-03-02 03:51:00,23.2,19.9,30.26,NE,50,6.0,9.0,87,0.00,,,0.00,Wunderground v.1.15,2013-03-02 09:51:00,
2013-03-02 03:56:00,23.4,20.1,30.26,ENE,78,6.0,9.0,87,0.00,,,0.00,Wunderground v.1.15,2013-03-02 09:56:00,
2013-03-02 04:01:00,23.4,20.1,30.26,NE,54,6.0,9.0,87,0.00,,,0.00,Wunderground v.1.15,2013-03-02 10:01:00,
2013-03-02 04:08:00,23.4,20.1,30.26,NE,56,6.0,9.0,87,0.00,,,0.00,Wunderground v.1.15,2013-03-02 10:08:00,
2013-03-02 04:14:00,23.4,20.1,30.26,ENE,61,6.0,9.0,87,0.00,,,0.00,Wunderground v.1.15,2013-03-02 10:14:00,
2013-03-02 04:20:00,23.5,20.2,30.26,NE,55,6.0,9.0,87,0.00,,,0.00,Wunderground v.1.15,2013-03-02 10:20:00,
2013-03-02 04:26:00,23.5,19.9,30.26,ENE,71,6.0,9.0,86,0.00,,,0.00,Wunderground v.1.15,2013-03-02 10:26:00,
2013-03-02 04:31:00,23.5,19.9,30.26,ENE,71,7.0,9.0,86,0.00,,,0.00,Wunderground v.1.15,2013-03-02 10:31:00,
2013-03-02 04:37:00,23.4,19.8,30.26,ENE,70,6.0,9.0,86,0.00,,,0.00,Wunderground v.1.15,2013-03-02 10:37:00,
2013-03-02 04:43:00,23.4,20.1,30.26,ENE,62,5.0,9.0,87,0.00,,,0.00,Wunderground v.1.15,2013-03-02 10:43:00,
2013-03-02 04:48:00,23.4,19.8,30.26,NE,55,6.0,9.0,86,0.00,,,0.00,Wunderground v.1.15,2013-03-02 10:48:00,
2013-03-02 04:54:00,23.5,19.9,30.26,ENE,61,5.0,9.0,86,0.00,,,0.00,Wunderground v.1.15,2013-03-02 10:54:00,
2013-03-02 04:59:00,23.5,19.9,30.27,NE,51,5.0,9.0,86,0.00,,,0.00,Wunderground v.1.15,2013-03-02 10:59:00,
2013-03-02 05:05:00,23.5,19.9,30.27,NE,40,4.0,9.0,86,0.00,,,0.00,Wunderground v.1.15,2013-03-02 11:05:00,
2013-03-02 05:10:00,23.4,20.1,30.27,East,80,2.0,9.0,87,0.00,,,0.00,Wunderground v.1.15,2013-03-02 11:10:00,
2013-03-02 05:16:00,23.3,20.0,30.27,NE,48,2.0,9.0,87,0.00,,,0.00,Wunderground v.1.15,2013-03-02 11:16:00,
2013-03-02 05:22:00,23.2,19.9,30.27,ENE,65,2.0,9.0,87,0.00,,,0.00,Wunderground v.1.15,2013-03-02 11:22:00,
2013-03-02 05:28:00,23.3,20.0,30.28,ENE,62,2.0,9.0,87,0.00,,,0.00,Wunderground v.1.15,2013-03-02 11:28:00,
2013-03-02 05:33:00,23.3,20.0,30.28,NE,48,2.0,9.0,87,0.00,,,0.00,Wunderground v.1.15,2013-03-02 11:33:00,
2013-03-02 05:39:00,23.3,20.0,30.28,North,5,2.0,9.0,87,0.00,,,0.00,Wunderground v.1.15,2013-03-02 11:39:00,
2013-03-02 05:44:00,23.2,19.9,30.28,NNE,32,3.0,9.0,87,0.00,,,0.00,Wunderground v.1.15,2013-03-02 11:44:00,
2013-03-02 05:50:00,23.2,19.9,30.28,NE,51,3.0,9.0,87,0.00,,,0.00,Wunderground v.1.15,2013-03-02 11:50:00,
2013-03-02 05:55:00,23.2,19.9,30.28,NE,55,3.0,9.0,87,0.00,,,0.00,Wunderground v.1.15,2013-03-02 11:55:00,
2013-03-02 06:01:00,23.1,19.8,30.29,ENE,57,2.0,9.0,87,0.00,,,0.00,Wunderground v.1.15,2013-03-02 12:01:00,
2013-03-02 06:07:00,23.1,19.8,30.29,East,84,2.0,9.0,87,0.00,,,0.00,Wunderground v.1.15,2013-03-02 12:07:00,
2013-03-02 06:12:00,23.1,19.8,30.29,ENE,73,3.0,9.0,87,0.00,,,0.00,Wunderground v.1.15,2013-03-02 12:12:00,
2013-03-02 06:18:00,23.1,19.8,30.29,ENE,65,3.0,9.0,87,0.00,,,0.00,Wunderground v.1.15,2013-03-02 12:18:00,
2013-03-02 06:24:00,23.1,19.5,30.29,ENE,74,2.0,9.0,86,0.00,,,0.00,Wunderground v.1.15,2013-03-02 12:24:00,
2013-03-02 06:30:00,23.1,19.5,30.29,East,84,2.0,2.0,86,0.00,,,0.00,Wunderground v.1.15,2013-03-02 12:30:00,
2013-03-02 06:35:00,23.1,19.5,30.29,NE,51,3.0,9.0,86,0.00,,,0.00,Wunderground v.1.15,2013-03-02 12:35:00,
2013-03-02 06:48:00,23.1,19.5,30.30,NE,54,2.0,9.0,86,0.00,,,0.00,Wunderground v.1.15,2013-03-02 12:48:00,
2013-03-02 06:53:00,23.1,19.5,30.30,NE,41,2.0,9.0,86,0.00,,,0.00,Wunderground v.1.15,2013-03-02 12:53:00,
2013-03-02 06:59:00,23.1,19.5,30.30,ENE,64,2.0,9.0,86,0.00,,,0.00,Wunderground v.1.15,2013-03-02 12:59:00,
2013-03-02 07:05:00,23.2,19.4,30.30,NE,55,3.0,9.0,85,0.00,,,0.00,Wunderground v.1.15,2013-03-02 13:05:00,
2013-03-02 07:10:00,23.3,19.5,30.30,ENE,60,2.0,9.0,85,0.00,,,0.00,Wunderground v.1.15,2013-03-02 13:10:00,
2013-03-02 07:15:00,23.2,19.4,30.30,ENE,64,3.0,9.0,85,0.00,,,0.00,Wunderground v.1.15,2013-03-02 13:15:00,
2013-03-02 07:21:00,23.2,19.4,30.30,East,82,3.0,9.0,85,0.00,,,0.00,Wunderground v.1.15,2013-03-02 13:21:00,
2013-03-02 07:27:00,23.2,19.4,30.30,ENE,57,2.0,9.0,85,0.00,,,0.00,Wunderground v.1.15,2013-03-02 13:27:00,
2013-03-02 07:32:00,23.2,19.1,30.30,ENE,65,2.0,9.0,84,0.00,,,0.00,Wunderground v.1.15,2013-03-02 13:32:00,
2013-03-02 07:48:00,23.4,19.3,30.30,NE,55,2.0,9.0,84,0.00,,,0.00,Wunderground v.1.15,2013-03-02 13:48:00,
2013-03-02 07:54:00,23.6,19.5,30.30,NE,53,2.0,9.0,84,0.00,,,0.00,Wunderground v.1.15,2013-03-02 13:54:00,
2013-03-02 07:59:00,23.8,19.4,30.30,ENE,63,2.0,9.0,83,0.00,,,0.00,Wunderground v.1.15,2013-03-02 13:59:00,
2013-03-02 08:04:00,24.0,19.6,30.31,ESE,107,2.0,9.0,83,0.00,,,0.00,Wunderground v.1.15,2013-03-02 14:04:00,
2013-03-02 08:10:00,24.3,19.6,30.31,East,96,3.0,3.0,82,0.00,,,0.00,Wunderground v.1.15,2013-03-02 14:10:00,
2013-03-02 08:16:00,24.6,19.6,30.31,NE,53,3.0,9.0,81,0.00,,,0.00,Wunderground v.1.15,2013-03-02 14:16:00,
2013-03-02 08:21:00,24.7,19.4,30.31,ENE,61,3.0,9.0,80,0.00,,,0.00,Wunderground v.1.15,2013-03-02 14:21:00,
2013-03-02 08:27:00,24.9,19.9,30.31,NE,49,3.0,9.0,81,0.00,,,0.00,Wunderground v.1.15,2013-03-02 14:27:00,
2013-03-02 08:32:00,25.1,19.8,30.31,East,80,3.0,9.0,80,0.00,,,0.00,Wunderground v.1.15,2013-03-02 14:32:00,
2013-03-02 08:42:00,25.6,19.7,30.31,NE,51,3.0,9.0,78,0.00,,,0.00,Wunderground v.1.15,2013-03-02 14:42:00,
2013-03-02 08:47:00,25.8,19.6,30.31,ENE,68,3.0,9.0,77,0.00,,,0.00,Wunderground v.1.15,2013-03-02 14:47:00,
2013-03-02 08:53:00,26.0,19.5,30.31,East,91,3.0,9.0,76,0.00,,,0.00,Wunderground v.1.15,2013-03-02 14:53:00,
2013-03-02 08:58:00,26.3,19.5,30.31,ENE,73,3.0,9.0,75,0.00,,,0.00,Wunderground v.1.15,2013-03-02 14:58:00,
2013-03-02 09:04:00,26.5,19.0,30.31,ENE,72,3.0,9.0,73,0.00,,,0.00,Wunderground v.1.15,2013-03-02 15:04:00,
2013-03-02 09:09:00,27.1,19.3,30.31,NE,55,3.0,9.0,72,0.00,,,0.00,Wunderground v.1.15,2013-03-02 15:09:00,
2013-03-02 09:15:00,27.0,19.2,30.31,ENE,58,4.0,9.0,72,0.00,,,0.00,Wunderground v.1.15,2013-03-02 15:15:00,
2013-03-02 09:20:00,26.7,18.6,30.31,NE,35,5.0,9.0,71,0.00,,,0.00,Wunderground v.1.15,2013-03-02 15:20:00,
2013-03-02 09:26:00,26.6,18.8,30.32,ENE,67,6.0,10.0,72,0.00,,,0.00,Wunderground v.1.15,2013-03-02 15:26:00,
2013-03-02 09:31:00,26.9,19.4,30.32,ENE,59,6.0,9.0,73,0.00,,,0.00,Wunderground v.1.15,2013-03-02 15:31:00,
2013-03-02 09:48:00,26.3,18.8,30.32,NE,44,8.0,10.0,73,0.00,,,0.00,Wunderground v.1.15,2013-03-02 15:48:00,
2013-03-02 09:54:00,26.1,18.3,30.32,ENE,65,9.0,13.0,72,0.00,,,0.00,Wunderground v.1.15,2013-03-02 15:54:00,
2013-03-02 10:00:00,26.0,18.5,30.32,ENE,57,9.0,9.0,73,0.00,,,0.00,Wunderground v.1.15,2013-03-02 16:00:00,
2013-03-02 10:05:00,26.2,18.4,30.32,NE,44,9.0,13.0,72,0.00,,,0.00,Wunderground v.1.15,2013-03-02 16:05:00,
2013-03-02 10:11:00,26.5,19.3,30.32,ENE,64,9.0,9.0,74,0.00,,,0.00,Wunderground v.1.15,2013-03-02 16:11:00,
2013-03-02 10:16:00,26.9,19.4,30.32,ENE,61,8.0,10.0,73,0.00,,,0.00,Wunderground v.1.15,2013-03-02 16:16:00,
2013-03-02 10:22:00,26.9,19.1,30.32,East,80,6.0,9.0,72,0.00,,,0.00,Wunderground v.1.15,2013-03-02 16:22:00,
2013-03-02 10:27:00,27.0,19.5,30.32,ENE,61,6.0,9.0,73,0.00,,,0.00,Wunderground v.1.15,2013-03-02 16:27:00,
2013-03-02 10:33:00,26.9,19.1,30.32,NE,52,7.0,10.0,72,0.00,,,0.00,Wunderground v.1.15,2013-03-02 16:33:00,
2013-03-02 10:39:00,27.1,19.3,30.32,ENE,63,7.0,11.0,72,0.00,,,0.00,Wunderground v.1.15,2013-03-02 16:39:00,
2013-03-02 10:44:00,27.2,19.4,30.32,ENE,67,8.0,9.0,72,0.00,,,0.00,Wunderground v.1.15,2013-03-02 16:44:00,
2013-03-02 10:50:00,27.3,19.8,30.32,ENE,65,8.0,9.0,73,0.00,,,0.00,Wunderground v.1.15,2013-03-02 16:50:00,
2013-03-02 10:55:00,27.3,19.5,30.32,East,79,8.0,9.0,72,0.00,,,0.00,Wunderground v.1.15,2013-03-02 16:55:00,
2013-03-02 11:01:00,27.5,20.0,30.32,ENE,69,8.0,9.0,73,0.00,,,0.00,Wunderground v.1.15,2013-03-02 17:01:00,
2013-03-02 11:07:00,27.7,20.5,30.32,ENE,59,8.0,10.0,74,0.00,,,0.00,Wunderground v.1.15,2013-03-02 17:07:00,
2013-03-02 11:13:00,27.3,19.5,30.32,NE,49,8.0,12.0,72,0.00,,,0.00,Wunderground v.1.15,2013-03-02 17:13:00,
2013-03-02 11:18:00,27.4,19.9,30.32,ENE,64,9.0,12.0,73,0.00,,,0.00,Wunderground v.1.15,2013-03-02 17:18:00,
2013-03-02 11:28:00,27.4,19.9,30.32,NE,50,8.0,10.0,73,0.00,,,0.00,Wunderground v.1.15,2013-03-02 17:28:00,
2013-03-02 11:34:00,27.9,20.0,30.32,ENE,62,7.0,9.0,72,0.00,,,0.00,Wunderground v.1.15,2013-03-02 17:34:00,
2013-03-02 11:39:00,28.2,20.3,30.32,NE,52,6.0,9.0,72,0.00,,,0.00,Wunderground v.1.15,2013-03-02 17:39:00,
2013-03-02 11:45:00,28.2,20.0,30.32,ENE,78,5.0,9.0,71,0.00,,,0.00,Wunderground v.1.15,2013-03-02 17:45:00,
2013-03-02 11:51:00,28.4,20.2,30.32,ENE,76,5.0,9.0,71,0.00,,,0.00,Wunderground v.1.15,2013-03-02 17:51:00,
2013-03-02 11:59:00,27.9,19.0,30.31,NE,53,7.0,9.0,69,0.00,,,0.00,Wunderground v.1.15,2013-03-02 17:59:00,
2013-03-02 12:04:00,27.8,18.9,30.31,ENE,67,8.0,10.0,69,0.00,,,0.00,Wunderground v.1.15,2013-03-02 18:04:00,
2013-03-02 12:09:00,28.0,19.8,30.31,NE,55,7.0,10.0,71,0.00,,,0.00,Wunderground v.1.15,2013-03-02 18:09:00,
2013-03-02 12:15:00,28.0,19.5,30.30,East,86,7.0,9.0,70,0.00,,,0.00,Wunderground v.1.15,2013-03-02 18:15:00,
2013-03-02 12:20:00,28.1,19.2,30.30,NE,53,8.0,8.0,69,0.00,,,0.00,Wunderground v.1.15,2013-03-02 18:20:00,
2013-03-02 12:26:00,28.2,19.7,30.30,NE,47,8.0,9.0,70,0.00,,,0.00,Wunderground v.1.15,2013-03-02 18:26:00,
2013-03-02 12:32:00,28.7,19.8,30.30,NE,44,6.0,9.0,69,0.00,,,0.00,Wunderground v.1.15,2013-03-02 18:32:00,
2013-03-02 12:38:00,28.8,19.2,30.30,NNE,33,5.0,10.0,67,0.00,,,0.00,Wunderground v.1.15,2013-03-02 18:38:00,
2013-03-02 12:43:00,28.9,19.3,30.29,ENE,59,6.0,9.0,67,0.00,,,0.00,Wunderground v.1.15,2013-03-02 18:43:00,
2013-03-02 12:49:00,28.6,19.7,30.29,ENE,68,7.0,10.0,69,0.00,,,0.00,Wunderground v.1.15,2013-03-02 18:49:00,
2013-03-02 13:11:00,29.5,19.5,30.28,ENE,65,6.0,9.0,66,0.00,,,0.00,Wunderground v.1.15,2013-03-02 19:11:00,
2013-03-02 13:17:00,29.6,19.6,30.28,East,84,6.0,9.0,66,0.00,,,0.00,Wunderground v.1.15,2013-03-02 19:17:00,
2013-03-02 13:22:00,29.7,19.4,30.28,ENE,67,6.0,9.0,65,0.00,,,0.00,Wunderground v.1.15,2013-03-02 19:22:00,
2013-03-02 13:28:00,29.7,19.7,30.28,ENE,59,6.0,9.0,66,0.00,,,0.00,Wunderground v.1.15,2013-03-02 19:28:00,
2013-03-02 13:34:00,30.0,19.7,30.28,ESE,102,5.0,9.0,65,0.00,,,0.00,Wunderground v.1.15,2013-03-02 19:34:00,
2013-03-02 13:39:00,30.2,19.5,30.28,ENE,78,4.0,9.0,64,0.00,,,0.00,Wunderground v.1.15,2013-03-02 19:39:00,
2013-03-02 13:45:00,29.7,18.6,30.27,East,83,5.0,9.0,63,0.00,,,0.00,Wunderground v.1.15,2013-03-02 19:45:00,
2013-03-02 13:50:00,29.9,19.9,30.27,East,90,6.0,9.0,66,0.00,,,0.00,Wunderground v.1.15,2013-03-02 19:50:00,
2013-03-02 13:56:00,30.1,19.4,30.27,ENE,70,5.0,9.0,64,0.00,,,0.00,Wunderground v.1.15,2013-03-02 19:56:00,
2013-03-02 14:02:00,29.9,19.9,30.27,East,101,5.0,9.0,66,0.00,,,0.00,Wunderground v.1.15,2013-03-02 20:02:00,
2013-03-02 14:07:00,30.3,19.9,30.27,ENE,57,4.0,9.0,65,0.00,,,0.00,Wunderground v.1.15,2013-03-02 20:07:00,
2013-03-02 14:13:00,30.2,19.8,30.27,NE,48,5.0,9.0,65,0.00,,,0.00,Wunderground v.1.15,2013-03-02 20:13:00,
2013-03-02 14:18:00,30.3,19.6,30.26,East,82,4.0,9.0,64,0.00,,,0.00,Wunderground v.1.15,2013-03-02 20:18:00,
2013-03-02 14:24:00,30.5,19.4,30.26,ENE,61,4.0,9.0,63,0.00,,,0.00,Wunderground v.1.15,2013-03-02 20:24:00,
2013-03-02 14:29:00,30.7,19.6,30.26,ENE,57,4.0,9.0,63,0.00,,,0.00,Wunderground v.1.15,2013-03-02 20:29:00,
2013-03-02 14:35:00,31.1,20.0,30.26,NNE,22,3.0,9.0,63,0.00,,,0.00,Wunderground v.1.15,2013-03-02 20:35:00,
2013-03-02 14:41:00,30.8,19.3,30.26,NNW,344,4.0,9.0,62,0.00,,,0.00,Wunderground v.1.15,2013-03-02 20:41:00,
2013-03-02 14:46:00,30.7,19.2,30.26,ENE,59,5.0,9.0,62,0.00,,,0.00,Wunderground v.1.15,2013-03-02 20:46:00,
2013-03-02 14:52:00,31.0,19.9,30.26,NE,51,3.0,9.0,63,0.00,,,0.00,Wunderground v.1.15,2013-03-02 20:52:00,
2013-03-02 14:57:00,31.1,19.6,30.26,ENE,60,3.0,9.0,62,0.00,,,0.00,Wunderground v.1.15,2013-03-02 20:57:00,
2013-03-02 15:03:00,31.0,18.7,30.26,ENE,65,4.0,9.0,60,0.00,,,0.00,Wunderground v.1.15,2013-03-02 21:03:00,
2013-03-02 15:08:00,30.8,18.9,30.26,ENE,76,5.0,9.0,61,0.00,,,0.00,Wunderground v.1.15,2013-03-02 21:08:00,
2013-03-02 15:14:00,30.7,19.2,30.26,East,84,4.0,9.0,62,0.00,,,0.00,Wunderground v.1.15,2013-03-02 21:14:00,
2013-03-02 15:19:00,31.2,19.3,30.26,East,100,3.0,9.0,61,0.00,,,0.00,Wunderground v.1.15,2013-03-02 21:19:00,
2013-03-02 15:25:00,31.4,19.5,30.26,ENE,78,3.0,9.0,61,0.00,,,0.00,Wunderground v.1.15,2013-03-02 21:25:00,
2013-03-02 15:30:00,31.6,19.7,30.27,ENE,67,3.0,3.0,61,0.00,,,0.00,Wunderground v.1.15,2013-03-02 21:30:00,
2013-03-02 15:36:00,31.4,19.1,30.27,ESE,118,3.0,9.0,60,0.00,,,0.00,Wunderground v.1.15,2013-03-02 21:36:00,
2013-03-02 15:42:00,31.2,18.5,30.27,NE,39,3.0,9.0,59,0.00,,,0.00,Wunderground v.1.15,2013-03-02 21:42:00,
2013-03-02 15:47:00,30.7,18.8,30.27,NNE,18,4.0,9.0,61,0.00,,,0.00,Wunderground v.1.15,2013-03-02 21:47:00,
2013-03-02 15:52:00,30.6,19.1,30.27,ENE,77,4.0,9.0,62,0.00,,,0.00,Wunderground v.1.15,2013-03-02 21:52:00,
2013-03-02 15:58:00,30.8,18.9,30.26,East,83,3.0,9.0,61,0.00,,,0.00,Wunderground v.1.15,2013-03-02 21:58:00,
2013-03-02 16:04:00,30.5,18.6,30.26,NE,44,4.0,9.0,61,0.00,,,0.00,Wunderground v.1.15,2013-03-02 22:04:00,
2013-03-02 16:09:00,30.3,18.8,30.27,ENE,77,3.0,9.0,62,0.00,,,0.00,Wunderground v.1.15,2013-03-02 22:09:00,
2013-03-02 16:15:00,30.3,19.2,30.27,ESE,105,3.0,9.0,63,0.00,,,0.00,Wunderground v.1.15,2013-03-02 22:15:00,
2013-03-02 16:20:00,30.5,18.6,30.26,East,80,3.0,3.0,61,0.00,,,0.00,Wunderground v.1.15,2013-03-02 22:20:00,
2013-03-02 16:26:00,30.2,18.7,30.26,ENE,67,3.0,9.0,62,0.00,,,0.00,Wunderground v.1.15,2013-03-02 22:26:00,
2013-03-02 16:32:00,30.1,19.0,30.27,East,84,3.0,6.0,63,0.00,,,0.00,Wunderground v.1.15,2013-03-02 22:32:00,
2013-03-02 16:38:00,29.8,18.7,30.26,East,101,3.0,9.0,63,0.00,,,0.00,Wunderground v.1.15,2013-03-02 22:38:00,
2013-03-02 16:44:00,29.7,18.6,30.26,East,90,3.0,9.0,63,0.00,,,0.00,Wunderground v.1.15,2013-03-02 22:44:00,
2013-03-02 16:49:00,29.6,18.5,30.26,ENE,67,2.0,9.0,63,0.00,,,0.00,Wunderground v.1.15,2013-03-02 22:49:00,
2013-03-02 17:08:00,29.5,18.4,30.27,East,80,3.0,9.0,63,0.00,,,0.00,Wunderground v.1.15,2013-03-02 23:08:00,
2013-03-02 17:19:00,28.7,18.1,30.26,NE,55,2.0,9.0,64,0.00,,,0.00,Wunderground v.1.15,2013-03-02 23:19:00,
2013-03-02 17:25:00,27.9,18.0,30.26,ENE,57,2.0,9.0,66,0.00,,,0.00,Wunderground v.1.15,2013-03-02 23:25:00,
2013-03-02 17:30:00,27.7,18.2,30.26,ENE,72,2.0,9.0,67,0.00,,,0.00,Wunderground v.1.15,2013-03-02 23:30:00,
2013-03-02 17:36:00,28.0,18.5,30.26,ESE,113,1.0,9.0,67,0.00,,,0.00,Wunderground v.1.15,2013-03-02 23:36:00,
2013-03-02 17:42:00,28.1,18.2,30.26,NE,39,1.0,2.0,66,0.00,,,0.00,Wunderground v.1.15,2013-03-02 23:42:00,
2013-03-02 17:47:00,27.9,18.4,30.26,NE,43,1.0,9.0,67,0.00,,,0.00,Wunderground v.1.15,2013-03-02 23:47:00,
2013-03-02 17:53:00,27.4,17.9,30.26,NE,51,1.0,9.0,67,0.00,,,0.00,Wunderground v.1.15,2013-03-02 23:53:00,
2013-03-02 17:58:00,26.7,17.2,30.26,NE,51,2.0,9.0,67,0.00,,,0.00,Wunderground v.1.15,2013-03-02 23:58:00,
2013-03-02 18:04:00,26.1,17.0,30.26,NE,51,1.0,9.0,68,0.00,,,0.00,Wunderground v.1.15,2013-03-03 00:04:00,
2013-03-02 18:09:00,25.8,17.4,30.26,NE,51,1.0,9.0,70,0.00,,,0.00,Wunderground v.1.15,2013-03-03 00:09:00,
2013-03-02 18:15:00,25.5,17.1,30.26,NE,51,1.0,9.0,70,0.00,,,0.00,Wunderground v.1.15,2013-03-03 00:15:00,
2013-03-02 18:20:00,25.2,16.8,30.26,NE,51,1.0,9.0,70,0.00,,,0.00,Wunderground v.1.15,2013-03-03 00:20:00,
2013-03-02 18:25:00,24.9,16.8,30.26,NE,51,1.0,9.0,71,0.00,,,0.00,Wunderground v.1.15,2013-03-03 00:25:00,
2013-03-02 18:42:00,24.3,16.6,30.27,NE,51,0.0,9.0,72,0.00,,,0.00,Wunderground v.1.15,2013-03-03 00:42:00,
2013-03-02 18:47:00,24.1,16.7,30.26,NE,51,0.0,9.0,73,0.00,,,0.00,Wunderground v.1.15,2013-03-03 00:47:00,
2013-03-02 18:52:00,24.1,16.7,30.26,NE,51,0.0,9.0,73,0.00,,,0.00,Wunderground v.1.15,2013-03-03 00:52:00,
2013-03-02 18:58:00,24.1,17.0,30.26,NE,51,0.0,9.0,74,0.00,,,0.00,Wunderground v.1.15,2013-03-03 00:58:00,
2013-03-02 19:03:00,24.3,16.9,30.26,NE,51,1.0,9.0,73,0.00,,,0.00,Wunderground v.1.15,2013-03-03 01:03:00,
2013-03-02 19:09:00,24.4,17.0,30.27,NE,51,1.0,9.0,73,0.00,,,0.00,Wunderground v.1.15,2013-03-03 01:09:00,
2013-03-02 19:14:00,24.2,16.8,30.26,NE,51,0.0,9.0,73,0.00,,,0.00,Wunderground v.1.15,2013-03-03 01:14:00,
2013-03-02 19:20:00,23.6,16.2,30.26,NE,51,0.0,9.0,73,0.00,,,0.00,Wunderground v.1.15,2013-03-03 01:20:00,
2013-03-02 19:30:00,22.8,16.4,30.26,NE,51,0.0,9.0,76,0.00,,,0.00,Wunderground v.1.15,2013-03-03 01:30:00,
2013-03-02 19:36:00,22.9,16.8,30.26,NE,51,0.0,9.0,77,0.00,,,0.00,Wunderground v.1.15,2013-03-03 01:36:00,
2013-03-02 19:42:00,23.1,16.7,30.26,NE,51,0.0,9.0,76,0.00,,,0.00,Wunderground v.1.15,2013-03-03 01:42:00,
2013-03-02 19:47:00,23.0,18.6,30.26,NE,51,0.0,9.0,83,0.00,,,0.00,Wunderground v.1.15,2013-03-03 01:47:00,
2013-03-02 19:53:00,22.8,16.7,30.26,NE,51,0.0,9.0,77,0.00,,,0.00,Wunderground v.1.15,2013-03-03 01:53:00,
2013-03-02 19:58:00,22.4,16.0,30.26,NE,51,0.0,9.0,76,0.00,,,0.00,Wunderground v.1.15,2013-03-03 01:58:00,
2013-03-02 20:04:00,22.3,16.2,30.26,NE,51,1.0,9.0,77,0.00,,,0.00,Wunderground v.1.15,2013-03-03 02:04:00,
2013-03-02 20:09:00,22.5,16.7,30.26,NE,51,0.0,9.0,78,0.00,,,0.00,Wunderground v.1.15,2013-03-03 02:09:00,
2013-03-02 20:15:00,22.8,16.7,30.25,NE,51,0.0,9.0,77,0.00,,,0.00,Wunderground v.1.15,2013-03-03 02:15:00,
2013-03-02 20:20:00,22.9,16.8,30.25,NE,51,0.0,9.0,77,0.00,,,0.00,Wunderground v.1.15,2013-03-03 02:20:00,
2013-03-02 20:26:00,22.9,16.8,30.25,NE,51,0.0,9.0,77,0.00,,,0.00,Wunderground v.1.15,2013-03-03 02:26:00,
2013-03-02 20:31:00,23.1,17.0,30.25,NE,51,0.0,9.0,77,0.00,,,0.00,Wunderground v.1.15,2013-03-03 02:31:00,
2013-03-02 20:37:00,23.2,17.1,30.26,NE,51,0.0,9.0,77,0.00,,,0.00,Wunderground v.1.15,2013-03-03 02:37:00,
2013-03-02 20:43:00,23.2,16.8,30.26,NE,51,0.0,9.0,76,0.00,,,0.00,Wunderground v.1.15,2013-03-03 02:43:00,
2013-03-02 20:48:00,22.4,16.0,30.26,NE,51,1.0,9.0,76,0.00,,,0.00,Wunderground v.1.15,2013-03-03 02:48:00,
2013-03-02 20:54:00,22.0,16.2,30.26,NE,51,1.0,9.0,78,0.00,,,0.00,Wunderground v.1.15,2013-03-03 02:54:00,
2013-03-02 21:00:00,22.0,16.5,30.26,NE,51,0.0,9.0,79,0.00,,,0.00,Wunderground v.1.15,2013-03-03 03:00:00,
2013-03-02 21:05:00,22.2,16.4,30.26,NE,51,0.0,9.0,78,0.00,,,0.00,Wunderground v.1.15,2013-03-03 03:05:00,
2013-03-02 21:11:00,22.2,16.4,30.25,NE,51,0.0,9.0,78,0.00,,,0.00,Wunderground v.1.15,2013-03-03 03:11:00,
2013-03-02 21:18:00,21.7,15.9,30.25,NE,51,0.0,9.0,78,0.00,,,0.00,Wunderground v.1.15,2013-03-03 03:18:00,
2013-03-02 21:23:00,21.5,16.3,30.25,NE,51,1.0,9.0,80,0.00,,,0.00,Wunderground v.1.15,2013-03-03 03:23:00,
2013-03-02 21:28:00,21.3,15.8,30.25,NE,51,0.0,9.0,79,0.00,,,0.00,Wunderground v.1.15,2013-03-03 03:28:00,
2013-03-02 21:34:00,20.7,15.5,30.25,NE,51,0.0,9.0,80,0.00,,,0.00,Wunderground v.1.15,2013-03-03 03:34:00,
2013-03-02 21:39:00,21.0,16.1,30.25,NE,51,0.0,9.0,81,0.00,,,0.00,Wunderground v.1.15,2013-03-03 03:39:00,
2013-03-02 21:45:00,21.4,16.2,30.25,NE,51,0.0,9.0,80,0.00,,,0.00,Wunderground v.1.15,2013-03-03 03:45:00,
2013-03-02 21:50:00,21.8,16.6,30.25,NE,51,0.0,9.0,80,0.00,,,0.00,Wunderground v.1.15,2013-03-03 03:50:00,
2013-03-02 21:56:00,22.0,16.5,30.25,NE,51,0.0,9.0,79,0.00,,,0.00,Wunderground v.1.15,2013-03-03 03:56:00,
2013-03-02 22:02:00,22.0,16.5,30.25,NE,51,0.0,9.0,79,0.00,,,0.00,Wunderground v.1.15,2013-03-03 04:02:00,
2013-03-02 22:07:00,21.7,15.9,30.25,NE,51,0.0,9.0,78,0.00,,,0.00,Wunderground v.1.15,2013-03-03 04:07:00,
2013-03-02 22:13:00,21.5,16.0,30.25,NE,51,1.0,9.0,79,0.00,,,0.00,Wunderground v.1.15,2013-03-03 04:13:00,
2013-03-02 22:18:00,21.2,16.0,30.25,NNW,338,2.0,9.0,80,0.00,,,0.00,Wunderground v.1.15,2013-03-03 04:18:00,
2013-03-02 22:24:00,20.2,15.0,30.25,NNW,338,3.0,9.0,80,0.00,,,0.00,Wunderground v.1.15,2013-03-03 04:24:00,
2013-03-02 22:30:00,19.5,14.6,30.25,NNW,338,2.0,9.0,81,0.00,,,0.00,Wunderground v.1.15,2013-03-03 04:30:00,
2013-03-02 22:35:00,19.3,15.0,30.25,NNW,338,2.0,9.0,83,0.00,,,0.00,Wunderground v.1.15,2013-03-03 04:35:00,
2013-03-02 22:41:00,19.7,15.4,30.25,NNW,338,2.0,9.0,83,0.00,,,0.00,Wunderground v.1.15,2013-03-03 04:41:00,
2013-03-02 22:46:00,20.0,15.7,30.25,NNW,338,2.0,9.0,83,0.00,,,0.00,Wunderground v.1.15,2013-03-03 04:46:00,
2013-03-02 22:52:00,20.2,15.9,30.25,NNW,338,2.0,9.0,83,0.00,,,0.00,Wunderground v.1.15,2013-03-03 04:52:00,
2013-03-02 22:57:00,20.2,15.9,30.25,NNW,338,3.0,9.0,83,0.00,,,0.00,Wunderground v.1.15,2013-03-03 04:57:00,
2013-03-02 23:00:00,20.2,15.6,30.25,NNW,338,3.0,3.0,82,0.00,,,0.00,Wunderground v.1.15,2013-03-03 05:00:00,
2013-03-02 23:01:00,20.1,15.8,30.25,NNW,338,3.0,9.0,83,0.00,,,0.00,Wunderground v.1.15,2013-03-03 05:01:00,
2013-03-02 23:02:00,20.2,15.6,30.25,NNW,338,3.0,9.0,82,0.00,,,0.00,Wunderground v.1.15,2013-03-03 05:02:00,
2013-03-02 23:04:00,20.2,15.6,30.25,NNW,338,3.0,9.0,82,0.00,,,0.00,Wunderground v.1.15,2013-03-03 05:04:00,
2013-03-02 23:10:00,20.0,15.7,30.25,NNW,338,3.0,3.0,83,0.00,,,0.00,Wunderground v.1.15,2013-03-03 05:10:00,
2013-03-02 23:15:00,20.0,15.7,30.25,NNW,338,2.0,9.0,83,0.00,,,0.00,Wunderground v.1.15,2013-03-03 05:15:00,
2013-03-02 23:31:00,19.9,15.6,30.24,NNW,338,2.0,9.0,83,0.00,,,0.00,Wunderground v.1.15,2013-03-03 05:31:00,
2013-03-02 23:37:00,19.7,15.4,30.24,NNW,338,1.0,9.0,83,0.00,,,0.00,Wunderground v.1.15,2013-03-03 05:37:00,
2013-03-02 23:42:00,19.5,15.2,30.24,NNW,338,0.0,9.0,83,0.00,,,0.00,Wunderground v.1.15,2013-03-03 05:42:00,
2013-03-02 23:48:00,19.2,14.9,30.24,NNW,338,0.0,9.0,83,0.00,,,0.00,Wunderground v.1.15,2013-03-03 05:48:00,
2013-03-02 23:54:00,18.8,14.8,30.24,NNW,338,0.0,9.0,84,0.00,,,0.00,Wunderground v.1.15,2013-03-03 05:54:00,